Regional Weather Roundup
Issued by NWS

Home | Current Version | Previous Version | Text Only | Print | Product List | Glossary Off
Versions: 1 2 3 4 5 6 7 8 9 10 11 12 13 14 15 16 17 18 19 20 21 22 23 24 25 26 27

000
ASUS45 KBOU 261407
RWRCO

WEATHER ROUNDUP FOR COLORADO
NATIONAL WEATHER SERVICE DENVER/BOULDER CO
800 AM MDT FRI MAY 26 2017

NOTE: "FAIR" INDICATES FEW OR NO CLOUDS BELOW 12000 FEET WITH NO
SIGNIFICANT WEATHER AND/OR OBSTRUCTIONS TO VISIBILITY.

COZ001>005-013-030-031-261500-
...NORTHWEST COLORADO...

CITY           SKY/WX    TMP DP  RH WIND       PRES   REMARKS
CRAIG          FAIR      48  39  71 E8        29.90F
HAYDEN         FAIR      45  36  70 SE10      29.92F
MEEKER         FAIR      56  41  57 E3        29.89S
RABBIT EARS PA PTSUNNY   34  32  93 S8        30.09S WCI  27
STEAMBOAT SPGS PTSUNNY   39  37  92 CALM      29.94F
WALDEN         NOT AVBL
$$

COZ006>008-011-261500-
...WEST CENTRAL VALLEYS...

CITY           SKY/WX    TMP DP  RH WIND       PRES   REMARKS
GRAND JUNCTION FAIR      62  42  47 SE24G32   29.85R
MONTROSE       FAIR      56  41  57 SE7       29.95F
EAGLE          SUNNY     46  41  81 CALM      30.00F
RIFLE          FAIR      56  43  61 CALM      29.89F
DELTA          FAIR      59  45  58 NE6       29.93S
NUCLA          FAIR      63  19  19 S12       29.97S
$$

COZ017>023-064>068-261500-
...SOUTHWEST COLORADO...

CITY           SKY/WX    TMP DP  RH WIND       PRES   REMARKS
DURANGO          N/A    N/A N/A N/A MISG      30.04S
CORTEZ         FAIR      57  33  40 E6        29.98R
PAGOSA SPRINGS FAIR      54  24  31 NE5       30.10S
TELLURIDE      PTSUNNY   48  19  31 S7        30.14R
WOLF CREEK PAS FAIR      34  14  44 S15G23    30.30R WCI  24
$$

COZ009-010-012-014-032>034-037-058>063-261500-
...CENTRAL COLORADO...

CITY           SKY/WX    TMP DP  RH WIND       PRES   REMARKS
ASPEN          FAIR      47  39  74 SE7       29.99F
BUENA VISTA    FAIR      46  37  70 CALM      30.08F
COPPER MTN     FAIR      37  27  65 S12       30.20R
BERTHOUD PASS  FAIR      30  19  64 W23G45    30.19S WCI  17
COTTONWOOD PAS FAIR      46  36  66 CALM      30.14S
GUNNISON       FAIR      44  39  82 N7        30.08S
KREMMLING      PTSUNNY   43  39  87 CALM      30.04S
LEADVILLE      PTSUNNY   36  33  89 CALM      30.12S
SALIDA         FAIR      50  38  62 CALM      30.14S
SUNLIGHT       FAIR      36  30  80 S10G16    30.15S
WILKERSON PASS FAIR      36  28  75 SW5       30.22S
$$

COZ069>075-261500-
...SAN LUIS VALLEY/SANGRE DE CRISTO MOUNTAINS...

CITY           SKY/WX    TMP DP  RH WIND       PRES   REMARKS
ALAMOSA        FAIR      50  36  58 S6        30.08R
DEL NORTE      FAIR      48  32  53 W6        30.09R
LA VETA PASS   FAIR      41  28  60 SW10G20   30.29R
SAGUACHE       FAIR      48  36  61 NW5       30.09R
$$

COZ035-036-038>040-261500-
...NORTHERN COLORADO FRONT RANGE...

CITY           SKY/WX    TMP DP  RH WIND       PRES   REMARKS
DENVER INTL AP PTSUNNY   49  40  71 N7        30.01R
DMNS CITY PARK   N/A     55  45  69 NE7G16    29.99F
AURORA         PTSUNNY   48  48  99 NE3       30.02R
FRONT RANGE AP PTSUNNY   50  43  76 N6        30.02R
ERIE MUNI ARPT CLOUDY    49  45  85 NE5       30.00F
BOULDER MUN AP FAIR      50  45  81 NE5       30.00F
CENTENNIAL     PTSUNNY   49  45  86 CALM      30.01S
BROOMFIELD     PTSUNNY   48  45  87 NW5       30.01S
FORT COLLINS   CLOUDY    49  37  63 E7        30.01R
LONGMONT       CLOUDY    51  42  70 E3        30.02S
$$

COZ041-046-047-076>085-087-088-261500-
...PIKES PEAK/PALMER DIVIDE AND SOUTHERN FOOTHILLS...

CITY           SKY/WX    TMP DP  RH WIND       PRES   REMARKS
COLO. SPRINGS  PTSUNNY   51  46  83 CALM      30.02S
A. F. ACADEMY  PTSUNNY   47  44  91 N6        30.02R
SCHRIEVER AFB  FAIR      53  45  73 S6        30.03R
CHEYENNE MTN   FAIR      50  45  84 CALM      29.98S
ELLICOTT       FAIR     N/A N/A N/A CALM      30.01R
FALCON         FAIR      50  42  75 E3        30.06R
FORT CARSON    FAIR      53  48  82 E5        30.00S
LIMON          FAIR      50  47  89 N10       30.01R
MONUMENT HILL  FAIR      48  41  76 E7        30.06R
CANON CITY     NOT AVBL
WALSENBURG     FAIR      55  48  76 MISG      30.02S
TRINIDAD       FAIR      54  44  69 VRB5      30.03R
$$

COZ042>045-048>051-090-091-261500-
...NORTHEAST COLORADO...

CITY           SKY/WX    TMP DP  RH WIND       PRES   REMARKS
GREELEY ARPT   FAIR      48  38  68 E3        30.01R
AKRON          FAIR      51  41  68 NE8       29.99R
BURLINGTON     FAIR      56  50  80 N12       29.95R
WRAY           FAIR      54  45  71 N8        29.96S
YUMA           FAIR      50  41  71 N8        29.97S
STERLING       FAIR      52  43  71 CALM      29.97R
HOLYOKE        NOT AVBL
FORT MORGAN    FAIR      51  37  58 CALM      30.00S
$$

COZ086-089-092>099-261500-
...SOUTHEAST COLORADO...

CITY           SKY/WX    TMP DP  RH WIND       PRES   REMARKS
PUEBLO         FAIR      57  45  64 CALM      29.98R
LA JUNTA       FAIR      60  47  61 W12       29.96S
LAMAR          FAIR      61  47  59 W10       29.92R
SPRINGFIELD      N/A     61  47  59 N14       29.94R
$$




USA.gov is the U.S. government's official web portal to all federal, state and local government web resources and services.